Home   Weather   Baden   Past weeks

Flag for Austria Past Weather in Baden, Lower Austria, Austria — Yesterday and Last 2 Weeks

Now
55 °F

Clear.


Feels Like: 54 °F
Forecast: 48 / 75 °F
Wind: 7 mph from North

Location: Vienna Schwechat-Flughafen Airport

Current Time: Aug 31, 2016 at 12:52:56 AM

Latest Report: Aug 31, 2016 at 12:20 AM


Visibility: 10 mi

Pressure: 30.24 "Hg

Humidity: 82%

Dew Point: 50 °F

Location of BadenLocation

Past Weather in Baden — Graph

°F

Baden Temperature Yesterday

Maximum temperature yesterday: 77 °F (at 1:20 PM)
Minimum temperature yesterday: 59 °F (at 11:20 PM)
Average temperature yesterday: 70 °F

High & Low Weather Summary for the Past Weeks

 TemperatureHumidityPressure
High86 °F (Aug 28, 3:20 PM)100% (Aug 16, 5:50 AM)30.36 "Hg (Aug 16, 5:50 AM)
Low52 °F (Aug 18, 6:20 AM)39% (Aug 25, 4:20 PM)29.83 "Hg (Aug 18, 2:50 PM)
Average68 °F69%30.09 "Hg
* Reported Aug 15 11:20 PM — Aug 30 11:20 PM, Baden, Weather by CustomWeather, © 2016

Note: Actual official high and low records may vary slightly from our data, if they occured in-between our weather recording intervals... More about our weather records

Advertising

Baden Weather History for the Previous 24 Hours

Scroll right to see more
 ConditionsComfort  
Time TempWeatherWind HumidityBarometerVisibility
11:20 PM
Tue, Aug 30
59 °FClear.7 mph72%30.24 "Hg10 mi
10:50 PM61 °FClear.6 mph68%30.24 "Hg10 mi
10:20 PM61 °FClear.6 mph68%30.24 "Hg10 mi
9:50 PM64 °FClear.6 mph60%30.21 "Hg10 mi
9:20 PM63 °FClear.6 mph68%30.21 "Hg10 mi
8:50 PM68 °FClear.6 mph53%30.21 "Hg10 mi
8:20 PM70 °FSunny.5 mph50%30.21 "Hg10 mi
7:50 PM70 °FSunny.6 mph50%30.18 "Hg10 mi
7:20 PM70 °FSunny.8 mph50%30.18 "Hg10 mi
6:50 PM73 °FSunny.9 mph47%30.18 "Hg10 mi
6:20 PM73 °FSunny.8 mph50%30.18 "Hg10 mi
5:50 PM75 °FSunny.12 mph44%30.18 "Hg10 mi
5:20 PM75 °FSunny.12 mph47%30.18 "Hg10 mi
4:50 PM75 °FPassing clouds.12 mph47%30.18 "HgN/A
4:20 PM77 °FPassing clouds.9 mph44%30.18 "HgN/A
3:50 PM77 °FSunny.13 mph44%30.18 "Hg10 mi
3:20 PM77 °FPassing clouds.10 mph47%30.21 "HgN/A
2:50 PM77 °FSunny.13 mph42%30.21 "Hg10 mi
2:20 PM77 °FPassing clouds.12 mph44%30.21 "HgN/A
1:50 PM77 °FScattered clouds.12 mph44%30.21 "HgN/A
1:20 PM77 °FScattered clouds.10 mph44%30.21 "HgN/A
12:50 PM75 °FScattered clouds.10 mph54%30.21 "HgN/A
12:20 PM75 °FPassing clouds.9 mph50%30.21 "HgN/A
11:50 AM75 °FScattered clouds.12 mph54%30.21 "HgN/A
11:20 AM73 °FScattered clouds.9 mph61%30.21 "HgN/A
10:50 AM72 °FPassing clouds.12 mph61%30.21 "HgN/A
10:20 AM73 °FPassing clouds.9 mph65%30.21 "HgN/A
9:50 AM72 °FPassing clouds.10 mph65%30.21 "HgN/A
9:20 AM70 °FPassing clouds.12 mph69%30.21 "HgN/A
8:50 AM70 °FSunny.9 mph69%30.21 "Hg10 mi
8:20 AM68 °FSunny.8 mph73%30.18 "Hg10 mi
7:50 AM66 °FSunny.9 mph78%30.18 "Hg10 mi
7:20 AM64 °FSunny.8 mph83%30.18 "Hg10 mi
6:50 AM64 °FClear.7 mph83%30.15 "Hg10 mi
6:20 AM63 °FClear.7 mph88%30.15 "Hg10 mi
5:50 AM64 °FClear.7 mph83%30.15 "Hg10 mi
5:20 AM64 °FClear.6 mph83%30.15 "Hg10 mi
4:50 AM66 °FClear.6 mph78%30.12 "Hg10 mi
4:20 AM64 °FClear.5 mph83%30.12 "Hg10 mi
3:50 AM66 °FClear.6 mph78%30.12 "Hg10 mi
3:20 AM66 °FClear.8 mph78%30.12 "Hg10 mi
2:50 AM68 °FClear.12 mph73%30.12 "Hg10 mi
2:20 AM68 °FClear.10 mph73%30.12 "Hg10 mi
1:50 AM70 °FClear.13 mph69%30.09 "Hg10 mi
1:20 AM70 °FClear.13 mph69%30.12 "Hg10 mi
12:50 AM70 °FClear.14 mph69%30.09 "Hg10 mi
12:20 AM70 °FClear.16 mph69%30.09 "Hg10 mi
Weather by CustomWeather, © 2016

See weather overviewHow to use our weather pages